TimeEDT,TemperatureF,Dew PointF,Humidity,Sea Level PressureIn,VisibilityMPH,Wind Direction,Wind SpeedMPH,Gust SpeedMPH,PrecipitationIn,Events,Conditions,WindDirDegrees,DateUTC
12:45 AM,37.4,28.4,70,29.62,15.0,North,9.2,-,N/A,,Mostly Cloudy,350,2013-03-26 04:45:00
1:45 AM,37.4,26.6,65,29.62,20.0,North,9.2,-,N/A,,Scattered Clouds,350,2013-03-26 05:45:00
2:45 AM,35.6,26.6,70,29.63,20.0,NNW,6.9,-,N/A,,Scattered Clouds,340,2013-03-26 06:45:00
3:45 AM,33.8,26.6,75,29.64,15.0,WNW,5.8,-,N/A,,Scattered Clouds,300,2013-03-26 07:45:00
6:45 AM,33.8,26.6,75,29.68,20.0,West,5.8,-,N/A,,Mostly Cloudy,260,2013-03-26 10:45:00
7:45 AM,35.6,26.6,70,29.70,20.0,WSW,8.1,-,N/A,,Overcast,240,2013-03-26 11:45:00
8:45 AM,35.6,28.4,75,29.72,20.0,West,8.1,-,N/A,,Overcast,280,2013-03-26 12:45:00
9:45 AM,41.0,28.4,61,29.73,20.0,WNW,8.1,-,N/A,,Scattered Clouds,300,2013-03-26 13:45:00
10:45 AM,44.6,28.4,53,29.73,20.0,WNW,11.5,-,N/A,,Mostly Cloudy,300,2013-03-26 14:45:00
12:45 PM,48.2,28.4,46,29.74,20.0,North,11.5,19.6,N/A,,Mostly Cloudy,10,2013-03-26 16:45:00
1:45 PM,48.2,28.4,46,29.73,20.0,North,11.5,27.6,N/A,,Mostly Cloudy,350,2013-03-26 17:45:00
3:45 PM,46.4,24.8,43,29.75,20.0,NNW,11.5,23.0,N/A,,Mostly Cloudy,330,2013-03-26 19:45:00
4:45 PM,46.4,24.8,43,29.75,15.0,NNW,11.5,25.3,N/A,,Mostly Cloudy,330,2013-03-26 20:45:00
5:45 PM,46.4,23.0,40,29.76,15.0,NNW,17.3,25.3,N/A,,Mostly Cloudy,330,2013-03-26 21:45:00
6:45 PM,44.6,23.0,43,29.78,15.0,NNW,11.5,-,N/A,,Scattered Clouds,340,2013-03-26 22:45:00
7:45 PM,41.0,23.0,49,29.81,10.0,Variable,5.8,-,N/A,,Scattered Clouds,0,2013-03-26 23:45:00
8:45 PM,39.2,23.0,52,29.83,10.0,Variable,5.8,-,N/A,,Scattered Clouds,0,2013-03-27 00:45:00
9:45 PM,39.2,23.0,52,29.85,10.0,Variable,5.8,-,N/A,,Scattered Clouds,0,2013-03-27 01:45:00
10:45 PM,35.6,23.0,60,29.86,15.0,WNW,6.9,-,N/A,,Scattered Clouds,300,2013-03-27 02:45:00
11:45 PM,33.8,24.8,70,29.86,15.0,WNW,8.1,-,N/A,,Scattered Clouds,300,2013-03-27 03:45:00